Weather History for Cherokee, IA

Change the Weather History Date:

Sunday, August 11, 2013

  Actual Average Record
Temperature  
Mean Temperature 74 °F -  
Max Temperature 84 °F 81 °F 100 °F (1976)
Min Temperature 65 °F 55 °F 43 °F (1986)
Cooling Degree Days 10    
Growing Degree Days 24 (Base 50)    
Moisture  
Dew Point 67 °F    
Average Humidity 78    
Maximum Humidity 96    
Minimum Humidity 59    
Precipitation  
Precipitation 0.02 in - - ()
Sea Level Pressure  
Sea Level Pressure 30.06 in    
Wind  
Wind Speed 6 mph (SSW)    
Max Wind Speed 14 mph    
Max Gust Speed 20 mph    
Visibility 10 miles    
Events Thunderstorm    
Averages and records for this station are not official NWS values.
T = Trace of Precipitation, MM = Missing Value Source: NWS Daily Summary

Daily Weather History Graph

Daily Weather History Graph

Search for Another Location

Airport:

Trip Planner

Search our weather history database for the weather conditions in past years. The results will help you decide how hot, cold, wet, or windy it might be!

Date:

Astronomy

Aug. 11, 2013 Rise Set
Actual Time 6:24 AM CDT 8:29 PM CDT
Civil Twilight 5:53 AM CDT 9:00 PM CDT
Nautical Twilight 5:15 AM CDT 9:37 PM CDT
Astronomical Twilight 4:34 AM CDT 10:19 PM CDT
Moon 11:22 AM CDT (8/11) 10:36 PM CDT (8/11)
Length of Visible Light 15h 06m
Length of Day
14h 04m
Waxing Crescent, 22% of the Moon is Illuminated
Aug 11
Waxing Crescent
Aug 14
First Quarter
Aug 20
Full
Aug 28
Last Quarter
Sep 5
New

Hourly Weather History & Observations

Time (CDT) Temp. Heat Index Dew Point Humidity Pressure Visibility Wind Dir Wind Speed Gust Speed Precip Events Conditions
12:15 AM 67.8 °F - 66.0 °F 94% 30.09 in 10.0 mi South 4.6 mph - N/A   Clear
12:35 AM 67.1 °F - 65.7 °F 95% 30.09 in 7.0 mi South 4.6 mph - N/A   Clear
12:55 AM 67.5 °F - 66.2 °F 96% 30.08 in 10.0 mi South 6.9 mph - N/A   Clear
1:15 AM 68.0 °F - 65.7 °F 92% 30.09 in 10.0 mi South 4.6 mph - N/A   Clear
1:35 AM 68.9 °F - 65.5 °F 89% 30.08 in 10.0 mi South 6.9 mph - N/A   Clear
1:55 AM 68.5 °F - 65.5 °F 90% 30.08 in 10.0 mi South 5.8 mph - N/A   Clear
2:15 AM 69.1 °F - 64.9 °F 87% 30.08 in 10.0 mi South 6.9 mph - N/A Thunderstorm Clear
2:35 AM 68.4 °F - 65.1 °F 89% 30.08 in 10.0 mi SSW 3.5 mph - N/A Thunderstorm Clear
2:55 AM 68.9 °F - 65.3 °F 88% 30.09 in 10.0 mi NNE 5.8 mph - N/A Thunderstorm Mostly Cloudy
3:15 AM 69.8 °F - 65.1 °F 85% 30.12 in 10.0 mi NW 10.4 mph 16.1 mph N/A Thunderstorm Thunderstorm
3:35 AM 70.2 °F - 64.9 °F 83% 30.11 in 10.0 mi North 4.6 mph - N/A Thunderstorm Overcast
3:55 AM 69.4 °F - 65.3 °F 87% 30.11 in 10.0 mi NNE 5.8 mph - N/A   Overcast
4:15 AM 68.0 °F - 63.9 °F 87% 30.14 in 10.0 mi North 13.8 mph 17.3 mph N/A   Overcast
4:35 AM 67.8 °F - 63.1 °F 85% 30.13 in 10.0 mi NNE 5.8 mph 9.2 mph N/A   Overcast
4:55 AM 67.3 °F - 62.6 °F 85% 30.11 in 10.0 mi Calm Calm - N/A   Overcast
5:15 AM 67.1 °F - 62.8 °F 86% 30.11 in 10.0 mi SSE 3.5 mph - N/A   Overcast
5:35 AM 66.9 °F - 63.1 °F 88% 30.09 in 10.0 mi Calm Calm - N/A   Mostly Cloudy
5:55 AM 66.7 °F - 63.0 °F 88% 30.09 in 10.0 mi Calm Calm - N/A   Mostly Cloudy
6:15 AM 66.4 °F - 63.0 °F 89% 30.09 in 10.0 mi Calm Calm - N/A   Scattered Clouds
6:35 AM 65.3 °F - 62.8 °F 92% 30.09 in 10.0 mi Calm Calm - N/A   Scattered Clouds
6:55 AM 65.5 °F - 63.5 °F 93% 30.09 in 10.0 mi Calm Calm - N/A   Mostly Cloudy
7:15 AM 65.5 °F - 63.5 °F 93% 30.08 in 10.0 mi SSE 4.6 mph - N/A   Scattered Clouds
7:35 AM 66.4 °F - 63.7 °F 91% 30.06 in 10.0 mi SSE 8.1 mph - N/A   Clear
7:55 AM 68.2 °F - 63.9 °F 86% 30.06 in 10.0 mi South 8.1 mph - N/A   Scattered Clouds
8:15 AM 70.0 °F - 63.9 °F 81% 30.06 in 10.0 mi South 11.5 mph - N/A   Clear
8:35 AM 70.9 °F - 64.6 °F 80% 30.06 in 10.0 mi South 9.2 mph - N/A   Clear
8:55 AM 72.5 °F - 64.6 °F 76% 30.08 in 10.0 mi South 8.1 mph - N/A   Scattered Clouds
9:15 AM 73.2 °F - 65.1 °F 76% 30.08 in 10.0 mi SSE 4.6 mph - N/A   Scattered Clouds
9:35 AM 74.3 °F - 65.3 °F 73% 30.08 in 10.0 mi SE 5.8 mph - N/A   Clear
9:55 AM 74.7 °F - 64.8 °F 71% 30.08 in 10.0 mi SSE 5.8 mph - N/A   Scattered Clouds
10:15 AM 76.1 °F - 65.7 °F 70% 30.08 in 10.0 mi SSE 8.1 mph - N/A   Scattered Clouds
10:35 AM 77.0 °F - 66.0 °F 69% 30.08 in 10.0 mi South 5.8 mph - N/A   Scattered Clouds
10:55 AM 77.4 °F - 67.3 °F 71% 30.07 in 10.0 mi South 8.1 mph - N/A   Scattered Clouds
11:15 AM 78.1 °F - 67.6 °F 70% 30.06 in 10.0 mi SSW 6.9 mph - N/A   Scattered Clouds
11:35 AM 78.4 °F - 68.2 °F 71% 30.05 in 10.0 mi SSW 8.1 mph - N/A   Scattered Clouds
11:55 AM 81.3 °F 84.5 °F 68.9 °F 66% 30.04 in 10.0 mi South 6.9 mph - N/A   Clear
12:15 PM 82.4 °F 85.4 °F 68.4 °F 62% 30.04 in 10.0 mi SSW 10.4 mph - N/A   Clear
12:35 PM 83.7 °F 86.7 °F 67.8 °F 59% 30.04 in 10.0 mi SW 9.2 mph - N/A   Clear
12:55 PM 84.2 °F 87.9 °F 68.7 °F 60% 30.04 in 10.0 mi SW 9.2 mph 17.3 mph N/A   Mostly Cloudy
1:15 PM 81.5 °F 84.6 °F 68.9 °F 65% 30.04 in 10.0 mi SW 11.5 mph - N/A   Overcast
1:35 PM 84.0 °F 88.1 °F 69.8 °F 62% 30.04 in 10.0 mi SW 10.4 mph - N/A   Overcast
1:55 PM 83.3 °F 87.1 °F 69.6 °F 63% 30.03 in 10.0 mi SSW 12.7 mph - N/A   Overcast
2:15 PM 83.5 °F 87.2 °F 69.4 °F 62% 30.03 in 10.0 mi SW 11.5 mph - N/A   Mostly Cloudy
2:35 PM 84.4 °F 89.0 °F 70.3 °F 63% 30.03 in 10.0 mi SW 9.2 mph - N/A   Mostly Cloudy
2:55 PM 82.8 °F 86.9 °F 70.5 °F 66% 30.03 in 10.0 mi SW 10.4 mph - N/A   Mostly Cloudy
3:15 PM 83.8 °F 88.3 °F 70.7 °F 64% 30.03 in 10.0 mi SW 12.7 mph - N/A   Mostly Cloudy
3:35 PM 82.6 °F 86.4 °F 69.6 °F 65% 30.03 in 10.0 mi SW 11.5 mph - N/A   Overcast
3:55 PM 82.6 °F 86.4 °F 69.8 °F 65% 30.03 in 10.0 mi SW 10.4 mph 17.3 mph N/A   Overcast
4:15 PM 83.7 °F 87.5 °F 69.6 °F 62% 30.03 in 10.0 mi SW 13.8 mph 19.6 mph N/A   Mostly Cloudy
4:35 PM 82.9 °F 86.7 °F 69.8 °F 64% 30.02 in 10.0 mi SW 11.5 mph 17.3 mph N/A Thunderstorm Mostly Cloudy
4:55 PM 82.9 °F 87.0 °F 70.2 °F 65% 30.02 in 10.0 mi SW 11.5 mph - N/A   Mostly Cloudy
5:15 PM 83.3 °F 87.6 °F 70.3 °F 65% 30.01 in 10.0 mi WSW 9.2 mph - N/A   Scattered Clouds
5:35 PM 82.6 °F 86.8 °F 70.5 °F 67% 30.01 in 10.0 mi SW 6.9 mph - N/A   Scattered Clouds
5:55 PM 81.9 °F 85.8 °F 70.3 °F 68% 30.00 in 10.0 mi WNW 6.9 mph - N/A   Overcast
6:15 PM 80.8 °F 84.7 °F 71.2 °F 73% 30.00 in 10.0 mi NNW 5.8 mph - N/A   Overcast
6:35 PM 80.6 °F 84.2 °F 70.7 °F 72% 30.00 in 10.0 mi NNE 12.7 mph - N/A   Mostly Cloudy
6:55 PM 79.7 °F - 70.7 °F 74% 30.00 in 10.0 mi North 9.2 mph - N/A   Mostly Cloudy
7:15 PM 77.9 °F - 69.8 °F 76% 30.01 in 10.0 mi NE 9.2 mph - N/A   Overcast
7:35 PM 77.9 °F - 69.8 °F 76% 30.02 in 10.0 mi NNE 10.4 mph - N/A   Overcast
7:55 PM 76.8 °F - 69.4 °F 78% 30.02 in 10.0 mi NNE 9.2 mph - N/A   Overcast
8:15 PM 76.1 °F - 68.9 °F 78% 30.02 in 10.0 mi NE 8.1 mph - N/A   Mostly Cloudy
8:35 PM 74.8 °F - 68.9 °F 82% 30.03 in 10.0 mi NNE 4.6 mph - N/A   Scattered Clouds
8:55 PM 73.8 °F - 69.1 °F 85% 30.03 in 10.0 mi NNE 5.8 mph - N/A   Scattered Clouds
9:15 PM 73.4 °F - 68.9 °F 86% 30.04 in 10.0 mi NNE 3.5 mph - N/A   Clear
9:35 PM 72.3 °F - 68.9 °F 89% 30.04 in 10.0 mi Calm Calm - N/A   Clear
9:55 PM 71.8 °F - 68.9 °F 91% 30.04 in 10.0 mi North 3.5 mph - N/A   Clear
10:15 PM 70.9 °F - 68.4 °F 92% 30.05 in 10.0 mi Calm Calm - N/A   Clear
10:35 PM 70.0 °F - 68.2 °F 94% 30.05 in 7.0 mi Calm Calm - N/A   Clear
10:55 PM 69.1 °F - 67.5 °F 95% 30.06 in 7.0 mi Calm Calm - N/A   Mostly Cloudy